Weather in Donghai

China     22°57′00″N   115°37′48″E
temp.,
°C
wind,
m/s
gust,
m/s
humid.,
%
clouds,
%
prec.,
mm/h
press.,
hPa
HPBL,
m
16 april, fri
fri1623:00+21ese3379100 0.0 1015385
02:00+21e3378100 0.0 1014447
05:00+20e238057 0.0 1014239
08:00+21ene2375100 0.1 1015430
11:00+23ese226699 0.1 1016673
14:00+26sse225780 0.3 1014932
17:00+25sse436484 0.0 1013536
20:00+22se23794 0.0 1015198
17 april, sat
sat1723:00+21nne11835 0.0 101638
02:00+21ne11848 0.0 101520
05:00+20e118420 0.0 101521
08:00+23ene227179 0.0 1017345
11:00+27ene235640 0.0 10161149
14:00+28e3353100 0.3 10131253
17:00+25ese465890 0.1 1014569
20:00+22e5864100 0.1 1017469
18 april, sun
sun1823:00+22ene5105571 0.0 1018732
02:00+22ene3757100 0.0 1016617
05:00+21ene355797 0.0 1016456
08:00+21e465470 0.0 1017530
11:00+27e78316 0.0 10161304
14:00+26ese983092 0.0 10141402
17:00+21e894679 0.0 1014640
20:00+20e6755100 0.0 1017570
19 april, mon
mon1923:00+19e6762100 0.0 1018632
02:00+18ne2367100 0.1 1015452
05:00+17ne2275100 0.7 1015337
08:00+18ne1271100 0.7 1016348
11:00+20ne1163100 0.0 1016551
14:00+23e225214 0.0 1013990
17:00+25sse544778 0.0 10111053
20:00+20e456194 0.0 1015412
20 april, tue
tue2023:00+19ene3463100 0.0 1015316
02:00+19e346627 0.0 1014236
05:00+18ene36653 0.0 1014377
08:00+20ne23530 0.0 1015472
11:00+26ese33390 0.0 10141206
14:00+28se75356 0.0 10121355
17:00+25ese76460 0.0 1012816
20:00+20e47670 0.0 1014430